Regional Weather Roundup
Issued by NWS Newport/Morehead, NC

Home | Current Version | Previous Version | Text Only | Print | Product List | Glossary On
Versions: 1 2 3 4 5 6 7 8 9 10 11 12 13 14 15 16 17 18 19 20 21 22 23 24 25 26 27 28 29 30 31 32 33 34 35 36 37 38 39 40 41 42 43 44 45 46 47 48 49 50
000
ASUS42 KMHX 040125
RWRMHX
WEATHER ROUNDUP FOR EASTERN NORTH CAROLINA
NATIONAL WEATHER SERVICE NEWPORT/MOREHEAD CITY NC
900 PM EDT THU SEP 03 2015

NOTE: "FAIR" INDICATES FEW OR NO CLOUDS BELOW 12,000 FEET
WITH NO SIGNIFICANT WEATHER AND/OR OBSTRUCTIONS TO VISIBILITY

NCZ015>017-031-032-045>047-102-103-040200-
NORTH COAST

CITY           SKY/WX    TMP DP  RH WIND       PRES   REMARKS
EDENTON        PTCLDY    76  73  88 CALM      29.89R
ELIZABETH CITY PTCLDY    75  72  90 CALM      29.90R
KITTY HAWK     PTCLDY    79  72  78 SW5       29.88R
MANTEO         PTCLDY    80  72  76 SW8       29.90R

$$

NCZ045>047-081-094-103-104-040200-
CENTRAL COAST

CITY           SKY/WX    TMP DP  RH WIND       PRES   REMARKS
FRISCO         PTCLDY    78  72  81 W5        29.89R
SWANQUARTER      N/A     81 N/A N/A SW7       29.85S

$$

NCZ095-097-098-100-101-040200-
SOUTHERN COAST

CITY           SKY/WX    TMP DP  RH WIND       PRES   REMARKS
BEAUFORT       MOCLDY    79  76  90 SW6       29.90R
CEDAR ISLAND     N/A     79 N/A N/A S5        29.94R
JACKSONVILLE   MOCLDY    77  72  84 CALM      29.89R
PINEY ISLAND   PTCLDY   N/A N/A N/A S6        29.90R
WILMINGTON     MOCLDY    75  70  84 SW3       29.90R


$$

NCZ011>013-027>030-043-044-078>080-089-090>093-098-040200-
COASTAL PLAIN

CITY           SKY/WX    TMP DP  RH WIND       PRES   REMARKS
AHOSKIE        PTCLDY    73  72  95 CALM      29.91R FOG
CLINTON        PTCLDY    76  71  84 CALM      29.91R
ELIZABETHTOWN  MOCLDY    77  73  86 CALM      29.91R
GOLDSBORO      PTCLDY    78  73  86 CALM      29.89R
GREENVILLE     CLEAR     75  73  94 CALM      29.93R
HAVELOCK       PTCLDY    78  73  84 SW6       29.90R
KENANSVILLE      N/A     74  72  94 CALM      29.91R
KINSTON        CLEAR     75  73  94 CALM      29.91R
NEW BERN       CLEAR     76  73  91 CALM      29.91R
RICHLANDS      PTCLDY    77  70  78 CALM      29.91R
ROCKY MOUNT    PTCLDY    76  73  91 CALM      29.91R
WASHINGTON     CLEAR     75  72  89 CALM      29.90R
WHITEVILLE     MOCLDY    75  69  81 CALM      29.90R

$$

AMZ130-135-150-152-154-156-158-170-250-252-270-ANZ085-086-088-633-658-670-040200-
MARINE OBSERVATIONS

STATION/POSITION TIME  TEMP    WIND        PRES    WAVE   SWELL
                       AIR SEA DIR/SP/G            HT/PER HT/PER
                 (UTC) (F)     (DEG/KT/KT) (MB)    (FT/S) (FT/S)
CHESAPEAKE LIGHT 0100   81     210/  5/  6 1012.7
64 E VA BEACH    0050   79 79  260/  6/  6 1011.6    1/13   2/13
DUCK             0100   81 81  200/  6/  8 1011.3
2 E DUCK         0041      80                N/A     1/13
OREGON INLET     0100   81 83  210/  8/  9 1012.1
13E OREGON INLT  0100      82                N/A     1/13
HATTERAS CG      0100   79 84  240/  4/  5 1012.1
DIAMOND BUOY     0050   81 85  280/  6/  8 1012.4    1/ 8   2/ 8
CAPE LOOKOUT     0100   79     260/  4/  5 1012.2
BEAUFORT LAB     0100   80 83  230/  1/  4 1011.7
30 SE NEW RVR IN NOT AVBL
30 SE NEW RVR IN 0025      82                N/A     2/ 8
27 SE WRIGHTSVLE 0100   77 82  270/  8/ 10   N/A
5 SE WRIGHTSVLE  0008   77 82  250/  6/  8 1012.0
225 S CAPE HAT   0050   83 84  300/  6/  8 1012.6    2/13   2/13
41 SE CHARLESTON 0050   81 84  180/  8/  8 1012.4    1/ 8   2/ 8

$$


USA.gov is the U.S. government's official web portal to all federal, state and local government web resources and services.